This is the latest recevied weather packets stored in our database for station/object KC5AV. If no packets are shown the sender has not sent any weather packets the latest 10 day(s).
| Time | Temp. | Humidity | Pressure | Rain* | Wind** | Luminosity | Snow |
|---|---|---|---|---|---|---|---|
| 1787439629 | 40.56° C | 32% | 1014.2 hPa | 0 mm | - | 149 W/m² | - |
| 1787439324 | 41.11° C | 31% | 1014.2 hPa | 0 mm | - | 217 W/m² | - |
| 1787439020 | 40.56° C | 31% | 1014.3 hPa | 0 mm | - | 268 W/m² | - |
| 1787438720 | 40° C | 33% | 1014.2 hPa | 0 mm | - | 276 W/m² | - |
| 1787438419 | 40° C | 33% | 1014.5 hPa | 0 mm | - | 255 W/m² | - |
| 1787438114 | 40° C | 33% | 1014.5 hPa | 0 mm | - | 151 W/m² | - |
| 1787437810 | 40.56° C | 31% | 1014.6 hPa | 0 mm | - | 158 W/m² | - |
| 1787437506 | 40.56° C | 31% | 1014.7 hPa | 0 mm | - | 285 W/m² | - |
| 1787437202 | 40.56° C | 32% | 1014.6 hPa | 0 mm | - | 361 W/m² | - |
| 1787436899 | 40.56° C | 31% | 1014.6 hPa | 0 mm | - | 305 W/m² | - |
| 1787436595 | 41.11° C | 31% | 1014.8 hPa | 0 mm | - | 235 W/m² | - |
| 1787436294 | 41.11° C | 32% | 1014.8 hPa | 0 mm | - | 356 W/m² | - |
| 1787435989 | 41.11° C | 33% | 1014.8 hPa | 0 mm | - | 389 W/m² | - |
| 1787435685 | 40.56° C | 33% | 1014.9 hPa | 0 mm | - | 370 W/m² | - |
| 1787435381 | 40.56° C | 34% | 1014.7 hPa | 0 mm | - | 416 W/m² | - |
| 1787435077 | 40.56° C | 35% | 1014.8 hPa | 0 mm | - | 367 W/m² | - |
| 1787434773 | 40.56° C | 35% | 1014.8 hPa | 0 mm | - | 187 W/m² | - |
| 1787434469 | 40° C | 34% | 1015 hPa | 0 mm | - | 390 W/m² | - |
| 1787434164 | 40° C | 36% | 1015 hPa | 0 mm | - | 439 W/m² | - |
| 1787433861 | 39.44° C | 37% | 1015.1 hPa | 0 mm | - | 461 W/m² | - |
| 1787433555 | 39.44° C | 35% | 1015.2 hPa | 0 mm | - | 238 W/m² | - |
| 1787433251 | 39.44° C | 37% | 1015.6 hPa | 0 mm | - | 249 W/m² | - |
| 1787432948 | 39.44° C | 35% | 1015.6 hPa | 0 mm | - | 298 W/m² | - |
| 1787432643 | 39.44° C | 36% | 1015.7 hPa | 0 mm | - | 277 W/m² | - |
| 1787432341 | 39.44° C | 36% | 1015.6 hPa | 0 mm | - | 235 W/m² | - |
* Rain latest hour (hover to see other rain measurements)
** Current wind speed in m/s (hover to see current wind gust speed)